P/2008 A2 ( LINEAR )

Japanese version
Home page
Updated on April 20, 2008

---------------------------------------------------------------------

* Profile

Discovery Date January 13, 2008
Magnitude 20.1 mag
Discoverer Lincoln Laboratory Near-Earth Asteroid Research project

* Pictures

* Orbital Elements

The following orbital elements are taken from MPC 62271:

Epoch 2008 June 23.0 TT = JDT 2454640.5
T 2008 June 12.0371 TT                                  MPC
q   1.305407             (2000.0)            P               Q
n   0.1726653      Peri.  233.1683      -0.9574592      +0.1743537
a   3.193984       Node   315.5219      -0.0051126      -0.8069556
e   0.591292       Incl.   19.1588      -0.2885234      -0.5642903
P   5.71
From 146 observations 2008 Jan. 13-Mar. 6, mean residual 0".5.

* Magnitudes Graph

        H = 16.5  G = 0.15

---------------------------------------------------------------------

The orbital elements are published at the MPC Ephemerides and Orbital Elements.
The magnitudes graphs are made with Comet for Windows.

---------------------------------------------------------------------

Copyright(C) Seiichi Yoshida (comet@aerith.net). All rights reserved.